Погода в Мирополье

Россия / Смоленская область     55°23′38″N   32°56′04″E
темп.,
°C
ветер,
м/с
пор.,
м/с
влажн.,
%
обл.,
%
осадки,
мм/ч
давл.,
гПа
погр.,
м
16 мая, вс
вс1600:00+11ююз3109767 0.0 1008271
03:00+10ю3898100 0.0 1009223
06:00+11ю389850 0.1 1010268
09:00+14ююз468987 0.6 1011536
12:00+16юз357598 0.0 1011870
15:00+20юз345645 0.3 10111598
18:00+19юз236718 0.8 1012934
21:00+14ю2291100 0.9 101221
17 мая, пн
пн1700:00+12ююв2294100 0.0 101312
03:00+12юв2496100 0.0 101371
06:00+12вюв2694100 0.0 1013135
09:00+17вюв4774100 0.0 1013424
12:00+21вюв5757100 0.0 10111177
15:00+24вюв585347 0.0 10091727
18:00+23вюв5106642 0.6 10071065
21:00+19вюв514785 0.7 1006539
18 мая, вт
вт1800:00+17вюв5148686 0.0 1006507
03:00+16вюв4128981 0.0 1005392
06:00+16вюв51390100 0.0 1004428
09:00+20юв6137698 0.0 1003900
12:00+23ююв7155992 0.0 10031643
15:00+22ю6126093 0.1 10041793
18:00+20ююв5117298 0.2 10041139
21:00+16ююв41284100 1.2 1006448
19 мая, ср
ср1900:00+15юв238949 0.1 100558
03:00+14вюв2491100 0.1 100597
06:00+15всв259383 0.0 1003154
09:00+19в5118275 0.8 1001615
12:00+20ююв8126319 0.6 10021547
15:00+22ююв6105244 0.6 10011956
18:00+17юв41078100 1.2 1001627
21:00+14юв38934 1.7 1001199
20 мая, чт
чт2000:00+12юв379858 0.1 1002198
03:00+11юв3899100 0.1 1001264
06:00+12юв389691 0.0 1001376
09:00+14ююв458593 0.3 1001688
12:00+14ююз3480100 0.9 1001963
15:00+14ююз357996 1.1 1002716
18:00+12з5892100 0.3 1004648
21:00+10з4989100 0.3 1006757